Location: Vienna
(38.9012°N, 77.2653°W)
Time: 05:03:35
(UTC-04:00)

Envisat - Visible Passes

Search period start: 20 July 2018 00:00
Search period end: 30 July 2018 00:00
Orbit: 764 x 766 km, 98.2° (Epoch: 19 July)

Date Brightness Start Highest point End Pass type
(mag) Time Alt. Az. Time Alt. Az. Time Alt. Az.
20 Jul 4.8 21:07:52 10° SSW 21:12:21 31° W 21:16:51 10° NW visible
22 Jul 5.6 21:34:46 10° SW 21:38:07 18° W 21:41:29 10° NW visible
23 Jul 4.4 20:56:23 10° SSW 21:01:08 40° W 21:05:54 10° NNW visible
25 Jul 5.3 21:22:56 10° SW 21:26:51 22° W 21:30:48 10° NW visible
27 Jul 5.8 21:50:41 10° WSW 21:52:41 12° W 21:54:41 10° WNW visible
28 Jul 5.0 21:11:16 10° SSW 21:15:36 28° W 21:19:59 10° NW visible
